ONEWEB-0236 (48797 NORAD) Tracking and Keplerian Element Data

This shows tracking and keplerian element data for the satellite.

Feedback or suggestion? Click here.




ElementValue
Catalog48797
NameONEWEB-0236
Epoch Orbit185
Epoch Day170.58334491
Epoch Year2021
RAAN268.8955
Inclination87.3981
Eccentricity0.0006464
Argument of Perigee181.8746
Mean Anonmoly70.5438
Mean Motion15.27350854
Decay Rate-0.00902746
L11 48797U 21045AG 21170.58334491 -.00902746 00000-0 -36801-1 0 9994
L22 48797 87.3981 268.8955 0006464 181.8746 70.5438 15.27350854 1852

Live tracking and technical data element details for ONEWEB-0236 (NORAD 48797). ONEWEB-0236 can be tracked NOW for your location showing map with azimuth and elevation plus other details from your city location.

Track the satellite on the map from your city or location and see movement details for azimuth, elevation, latitude, longitude, range, height, and movement on the map or in text.







IsCatalogInMostPopularTable: catalog: 48797, numindb: 6
Update: records affected: 1



GetName: 48797 ONEWEB-0236

Hit Count: updated at: Mon, 21 Jun 2021 03:00:14 GMT